Venice, FL (VENF1)

Conditions for Saturday

Daily
Weekly
Monthly
Marine Data Graph

Marine & Boating Location Search

Enter a coastal zip code for marine weather.

General Information

Location: 27.07 -82.45
Buoy Type: C-MAN Station
Payload: ARES payload
Owned by: NDBC
Windspeed: Measured by obtained from anemometer
Sea Surface: Measured by Intake

Weather and Wave Data

Time Temp Humidity Wind Pressure
  Air
(°F)
Water
(°F)
  Dir Speed
(kts)
Speed
(mph)
Atmo.
(in)
Tend.
(in)
20:00 61 69 90 NNE 9.0 10.4 30.26 +0.04
21:00 61 68 92 NNE 8.0 9.2 30.26 +0.03
22:00 61 68 91 NNE 10.0 11.5 30.27 +0.02
23:00 60 68 95 NNE 10.0 11.5 30.26 -
00:00 58 68 96 NNE 9.0 10.4 30.25 -0.02
02:00 56 68 95 NNE 11.0 12.7 30.22 -0.04
03:00 54 68 98 NNE 12.0 13.8 30.20 -0.04
04:00 54 68 96 NNE 12.0 13.8 30.20 -0.04
05:00 53 68 100 NNE 11.0 12.7 30.20 -0.03
06:00 54 68 99 NE 12.0 13.8 30.20 -
07:00 54 67 100 NE 11.0 12.7 30.21 +0.01
08:00 55 67 99 NE 10.0 11.5 30.23 +0.04
09:00 59 68 91 NE 12.0 13.8 30.24 +0.04
10:00 63 68 83 NE 12.0 13.8 30.26 +0.05
11:00 67 67 73 NE 16.0 18.4 30.25 +0.02
12:00 69 68 67 ENE 15.0 17.3 30.22 -0.02
13:00 71 68 63 East 13.0 15.0 30.18 -0.08
14:00 71 68 64 ENE 9.0 10.4 30.15 -0.10
15:00 71 68 67 ENE 7.0 8.1 30.13 -0.09
16:00 71 68 67 ENE 12.0 13.8 30.13 -0.05
17:00 71 69 68 NE 10.0 11.5 30.13 -0.02
18:00 70 68 73 NE 9.0 10.4 30.14 +0.01
19:00 69 69 77 ENE 9.0 10.4 30.15 +0.02
20:00 67 68 85 ENE 10.0 11.5 30.16 +0.03
21:00 66 68 90 ENE 10.0 11.5 30.17 +0.03
22:00 65 68 96 East 9.0 10.4 30.17 +0.01
23:00 64 68 99 ENE 7.0 8.1 30.15 -0.01
00:00 63 68 100 ENE 5.0 5.8 30.14 -0.02
01:00 63 68 98 ENE 8.0 9.2 30.12 -0.04
02:00 63 68 98 ENE 7.0 8.1 30.13 -0.02
03:00 62 68 100 NE 7.0 8.1 30.12 -0.02

Detailed Wave Spectra